Home   Weather   Barrie   Past weeks

Flag for Canada Past Weather in Barrie, Ontario, Canada — Yesterday and Last 2 Weeks

Now
82 °F

Sunny.


Feels Like: 84 °F
Forecast: 55 / 84 °F
Wind: 12 mph from Southwest

Location: Borden

Current Time: Aug 30, 2016 at 1:24:59 PM

Latest Report: Aug 30, 2016 at 12:00 PM


Visibility: 9 mi

Pressure: 30.10 "Hg

Humidity: 55%

Dew Point: 64 °F

Location of BarrieLocation

Past Weather in Barrie — Graph

°F

Barrie Temperature Yesterday

Maximum temperature yesterday: 77 °F (at 1:00 PM)
Minimum temperature yesterday: 54 °F (at 5:00 AM)
Average temperature yesterday: 66 °F

High & Low Weather Summary for the Past Weeks

 TemperatureHumidityPressure
High88 °F (Aug 20, 3:00 PM)100% (Aug 16, 9:04 AM)30.29 "Hg (Aug 16, 9:04 AM)
Low46 °F (Aug 22, 6:00 AM)36% (Aug 22, 1:00 PM)29.54 "Hg (Aug 21, 4:00 AM)
Average69 °F78%30.02 "Hg
* Reported Aug 15 12:00 PM — Aug 30 12:00 PM, Barrie, Weather by CustomWeather, © 2016

Note: Actual official high and low records may vary slightly from our data, if they occured in-between our weather recording intervals... More about our weather records

Advertising

Barrie Weather History for the Previous 24 Hours

Scroll right to see more
 ConditionsComfort  
Time TempWeatherWind HumidityBarometerVisibility
12:00 PM
Tue, Aug 30
82 °FSunny.12 mph55%30.10 "Hg9 mi
10:00 AM77 °FSunny.9 mph47%30.14 "Hg9 mi
9:00 AM68 °FSunny.3 mph69%30.14 "Hg9 mi
8:00 AM61 °FSunny.3 mph88%30.16 "Hg9 mi
7:00 AM52 °FClear.No wind100%30.16 "Hg9 mi
6:00 AM50 °FClear.2 mph100%30.17 "Hg9 mi
5:00 AM50 °FClear.2 mph100%30.17 "Hg9 mi
4:00 AM52 °FClear.2 mph94%30.18 "Hg9 mi
3:00 AM52 °FClear.2 mph94%30.19 "Hg9 mi
2:00 AM52 °FClear.2 mph94%30.19 "Hg9 mi
1:00 AM52 °FClear.No wind100%30.20 "Hg9 mi
12:00 AM55 °FClear.No wind94%30.21 "Hg9 mi
11:00 PM
Mon, Aug 29
55 °FClear.No wind94%30.22 "Hg9 mi
10:00 PM59 °FClear.No wind82%30.22 "Hg9 mi
9:00 PM64 °FClear.No wind73%30.22 "Hg9 mi
8:00 PM68 °FSunny.5 mph64%30.21 "Hg9 mi
7:00 PM73 °FSunny.7 mph50%30.22 "Hg9 mi
6:00 PM75 °FSunny.7 mph50%30.22 "Hg9 mi
5:00 PM77 °FSunny.7 mph47%30.23 "Hg9 mi
4:00 PM77 °FSunny.6 mph47%30.24 "Hg9 mi
3:00 PM77 °FSunny.6 mph47%30.25 "Hg9 mi
2:00 PM77 °FScattered clouds.5 mph51%30.26 "Hg9 mi
1:00 PM77 °FPassing clouds.7 mph51%30.27 "Hg9 mi
Weather by CustomWeather, © 2016

See weather overviewHow to use our weather pages